W1VB-1 Weather Reports


Display with metric or nautical units.
time (UTC)temp
F
wind
direction
speed
MPH
gust
MPH
rain 1hr
in
rain 24hr
in
rain mn
in
humidity
%
barometer
mb
20260902092517 76 342 1.0 2.0 0.00 1.10 0.01 99 1014.7
20260902091516 76 351 0.0 2.0 0.00 1.10 0.01 99 1014.7
20260902090517 76 352 1.0 2.0 0.00 1.10 0.01 99 1014.6
20260902085517 75 339 1.0 2.0 0.00 1.10 0.01 99 1014.7
20260902084557 76 0.0 0.0 0.00 1.10 0.01 99 1014.7
20260902083536 76 338 0.0 1.0 0.00 1.10 0.01 99 1014.6
20260902082517 76 339 0.0 1.0 0.00 1.10 0.01 99 1014.6
20260902081518 76 347 1.0 3.0 0.00 1.10 0.01 99 1014.6
20260902080617 76 356 2.0 3.0 0.00 1.10 0.01 99 1014.7
20260902075536 76 337 1.0 3.0 0.00 1.10 0.01 99 1014.7
20260902074517 76 356 1.0 3.0 0.00 1.10 0.01 99 1014.8
20260902073517 76 344 1.0 2.0 0.00 1.10 0.01 99 1014.8
20260902072516 76 346 1.0 2.0 0.00 1.10 0.01 99 1014.8
20260902071517 76 347 1.0 2.0 0.00 1.10 0.01 98 1014.8
20260902070518 76 351 1.0 3.0 0.00 1.10 0.01 98 1014.9
20260902065517 76 344 1.0 2.0 0.00 1.10 0.01 98 1014.9
20260902064537 76 347 2.0 3.0 0.01 1.10 0.01 98 1015.1
20260902063517 76 342 2.0 4.0 0.01 1.10 0.01 98 1015.0
20260902062517 75 341 2.0 3.0 0.01 1.10 0.01 98 1015.0
20260902061516 76 319 1.0 3.0 0.01 1.10 0.01 98 1015.0
20260902060517 76 311 0.0 2.0 0.01 1.10 0.01 98 1015.1
20260902055517 76 328 0.0 1.0 0.01 1.10 0.01 98 1015.1
20260902054517 76 341 1.0 4.0 0.00 1.09 0.00 98 1015.0
20260902053517 76 341 0.0 1.0 0.00 1.09 0.00 98 1015.1
20260902052517 76 360 1.0 3.0 0.00 1.09 0.00 98 1015.2
20260902051517 76 29 1.0 3.0 0.00 1.09 0.00 98 1015.0
20260902050517 76 45 2.0 5.0 0.00 1.09 0.00 98 1015.0
20260902045517 76 47 3.0 4.0 0.00 1.09 0.00 98 1015.1
20260902044516 76 54 2.0 3.0 0.00 1.09 0.00 98 1015.2
20260902043517 76 346 2.0 4.0 0.00 1.09 0.00 98 1015.1
20260902042517 76 17 2.0 5.0 0.00 1.09 0.00 98 1015.2
20260902041517 76 15 2.0 3.0 0.00 1.09 0.00 98 1015.3
20260902040537 76 28 1.0 3.0 0.00 1.09 0.00 98 1015.3
20260902035517 76 23 1.0 2.0 0.00 1.09 1.09 98 1015.3
20260902034517 76 5 0.0 2.0 0.00 1.09 1.09 98 1015.5
20260902033517 76 2 1.0 3.0 0.00 1.09 1.09 98 1015.6
20260902032516 76 24 1.0 2.0 0.00 1.09 1.09 98 1015.6
20260902031517 76 46 1.0 1.0 0.00 1.09 1.09 98 1015.7
20260902030517 76 38 0.0 2.0 0.00 1.09 1.09 98 1015.8
20260902025537 76 350 1.0 2.0 0.00 1.09 1.09 98 1015.8
20260902024517 76 349 0.0 2.0 0.00 1.09 1.09 98 1016.0
20260902023517 76 349 1.0 3.0 0.00 1.09 1.09 98 1016.1
20260902022516 76 338 1.0 4.0 0.00 1.09 1.09 98 1016.2
20260902021517 76 341 2.0 4.0 0.00 1.09 1.09 98 1016.3
20260902020557 76 340 2.0 4.0 0.01 1.09 1.09 98 1016.2
20260902015517 75 1 2.0 5.0 0.01 1.09 1.09 98 1016.2
20260902014516 75 350 4.0 5.0 0.01 1.09 1.09 98 1016.2
20260902013517 75 335 2.0 3.0 0.02 1.09 1.09 98 1016.0
20260902012517 75 340 1.0 4.0 0.02 1.09 1.09 98 1015.8
20260902011517 75 339 2.0 4.0 0.03 1.10 1.09 98 1015.6
20260902010517 75 328 1.0 4.0 0.03 1.09 1.08 97 1015.6
20260902005517 75 338 0.0 3.0 0.06 1.09 1.08 97 1015.6
20260902004517 75 328 1.0 3.0 0.07 1.09 1.08 97 1015.6
20260902003537 75 346 1.0 3.0 0.07 1.09 1.07 97 1015.6
20260902002537 75 343 2.0 4.0 0.08 1.09 1.07 97 1015.6
20260902001517 75 314 1.0 2.0 0.09 1.09 1.06 97 1015.6
20260902000517 75 314 1.0 2.0 0.09 1.10 1.05 97 1015.6
20260901235517 74 329 1.0 3.0 0.06 1.09 1.02 97 1015.5
20260901234517 75 336 2.0 3.0 0.06 1.09 1.01 97 1015.4
20260901233517 75 15 2.0 4.0 0.07 1.10 1.00 97 1015.2
20260901232517 75 16 2.0 4.0 0.12 1.12 0.99 97 1015.3
20260901231517 76 21 2.0 5.0 0.11 1.14 0.97 97 1015.5
20260901230517 75 353 4.0 6.0 0.10 1.15 0.96 97 1015.6
20260901225518 75 0 3.0 8.0 0.10 1.16 0.96 96 1015.6
20260901224517 76 17 5.0 9.0 0.10 1.15 0.95 96 1015.7
20260901223517 76 357 6.0 10.0 0.19 1.13 0.93 96 1015.9
20260901222517 75 4 6.0 11.0 0.49 1.07 0.87 96 1015.9
20260901221537 76 337 7.0 11.0 0.85 1.06 0.86 96 1015.7
20260901220517 77 342 7.0 13.0 0.85 1.06 0.86 96 1015.5
20260901215517 76 320 3.0 6.0 0.85 1.08 0.86 96 1015.3
20260901214017 76 24 1.0 4.0 0.78 1.76 0.79 94 1015.0
20260901213017 77 20 3.0 14.0 0.64 1.73 0.65 92 1015.3
20260901212036 80 9 10.0 17.0 0.10 1.38 0.11 89 1015.2
20260901211037 81 54 3.0 8.0 0.00 1.28 0.01 86 1015.3
20260901210038 83 40 4.0 8.0 0.00 1.28 0.01 85 1014.9
20260901205017 85 88 1.0 3.0 0.00 1.28 0.01 84 1014.5
20260901204017 85 212 0.0 3.0 0.00 1.28 0.01 83 1014.4
20260901203017 86 239 1.0 5.0 0.00 1.28 0.01 82 1014.1
20260901202018 87 225 3.0 7.0 0.00 1.28 0.01 80 1014.5
20260901201017 87 223 2.0 9.0 0.00 1.28 0.01 78 1014.3
20260901200017 88 240 3.0 8.0 0.00 1.28 0.01 78 1014.2
20260901195017 89 277 2.0 5.0 0.00 1.28 0.01 80 1014.3
20260901194017 89 338 2.0 4.0 0.00 1.28 0.01 80 1014.4
20260901193017 89 337 3.0 6.0 0.00 1.28 0.01 79 1014.7
20260901192137 89 335 3.0 6.0 0.00 1.28 0.01 79 1014.4
20260901191017 90 334 4.0 9.0 0.00 1.28 0.01 77 1014.5
20260901190017 90 346 5.0 9.0 0.00 1.28 0.01 77 1014.8
20260901185017 90 335 5.0 8.0 0.00 1.28 0.01 80 1014.9
20260901184017 90 7 3.0 7.0 0.00 1.28 0.01 75 1015.2
20260901183017 89 37 4.0 9.0 0.00 1.28 0.01 77 1015.3
20260901182017 88 50 5.0 7.0 0.00 1.28 0.01 81 1015.3
20260901181018 87 29 4.0 7.0 0.00 1.28 0.01 81 1015.4
20260901180017 88 32 4.0 7.0 0.00 1.28 0.01 80 1015.6
20260901175017 90 36 6.0 12.0 0.00 1.28 0.01 76 1015.8
20260901174018 93 10 3.0 7.0 0.00 1.28 0.01 69 1015.8
20260901173017 95 333 2.0 5.0 0.00 1.28 0.01 70 1016.0
20260901172017 95 258 1.0 5.0 0.00 1.28 0.01 70 1016.0
20260901171017 93 231 1.0 3.0 0.00 1.28 0.01 73 1016.2
20260901170017 92 40 1.0 4.0 0.00 1.28 0.01 74 1016.2
20260901165017 92 355 1.0 3.0 0.00 1.28 0.01 74 1016.1
20260901164517 92 319 2.0 4.0 0.00 1.28 0.01 74 1016.2
20260901163017 92 299 0.0 4.0 0.00 1.28 0.01 76 1016.4
20260901162017 92 312 1.0 3.0 0.00 1.28 0.01 77 1016.6
20260901161037 90 56 1.0 3.0 0.00 1.28 0.01 78 1016.7
20260901160017 89 55 2.0 4.0 0.00 1.28 0.01 80 1016.8
20260901155017 89 54 1.0 4.0 0.00 1.28 0.01 84 1016.7
20260901154017 87 32 1.0 3.0 0.00 1.28 0.01 88 1016.8
20260901153018 87 49 2.0 4.0 0.00 1.28 0.01 91 1016.8
20260901152017 85 70 1.0 3.0 0.00 1.28 0.01 94 1016.8
20260901151017 84 15 2.0 3.0 0.00 1.28 0.01 95 1016.9
20260901150037 85 51 0.0 3.0 0.00 1.28 0.01 97 1016.8
20260901145017 84 59 1.0 2.0 0.00 1.28 0.01 98 1016.6
20260901144016 83 337 2.0 3.0 0.00 1.28 0.01 98 1016.6
20260901143017 82 356 2.0 4.0 0.00 1.28 0.01 98 1016.6
20260901142017 82 43 1.0 4.0 0.00 1.28 0.01 99 1016.5
20260901141017 82 59 1.0 4.0 0.00 1.28 0.01 99 1016.3
20260901140037 81 16 3.0 4.0 0.00 1.28 0.01 99 1016.3
20260901135018 81 10 2.0 4.0 0.00 1.28 0.01 99 1016.3
20260901134517 81 26 2.0 4.0 0.00 1.28 0.01 99 1016.3
20260901133517 80 21 2.0 4.0 0.00 1.28 0.01 99 1016.3
20260901132537 80 41 3.0 5.0 0.00 1.28 0.01 99 1016.4
20260901131517 79 34 2.0 4.0 0.00 1.28 0.01 99 1016.3
20260901130517 79 35 3.0 4.0 0.00 1.28 0.01 99 1016.2
20260901125517 79 38 2.0 5.0 0.00 1.28 0.01 99 1016.1
20260901124515 78 6 3.0 5.0 0.00 1.28 0.01 99 1016.2
20260901123517 78 350 3.0 6.0 0.00 1.28 0.01 99 1016.1
20260901121517 77 35 1.0 2.0 0.00 1.28 0.01 99 1015.9
20260901120537 77 53 0.0 2.0 0.00 1.28 0.01 99 1016.0
20260901115517 77 18 1.0 3.0 0.00 1.28 0.01 99 1015.9
20260901114517 76 359 1.0 2.0 0.00 1.28 0.01 99 1015.8
20260901113518 76 44 1.0 2.0 0.00 1.28 0.01 99 1015.7
20260901112516 76 345 0.0 1.0 0.00 1.28 0.01 99 1015.7
20260901111517 76 345 0.0 1.0 0.01 1.28 0.01 99 1015.5
20260901110517 76 345 0.0 1.0 0.01 1.28 0.01 99 1015.4
20260901105517 76 22 1.0 2.0 0.01 1.28 0.01 99 1015.4
20260901104516 76 36 1.0 3.0 0.01 1.28 0.01 99 1015.2
20260901103518 76 5 2.0 3.0 0.01 1.28 0.01 99 1015.2
20260901102517 76 355 2.0 4.0 0.01 1.28 0.01 99 1015.1
20260901101517 76 6 2.0 4.0 0.00 1.27 0.00 99 1015.0
20260901100536 76 17 2.0 3.0 0.00 1.27 0.00 99 1015.1
20260901095517 76 24 2.0 4.0 0.00 1.27 0.00 99 1015.0
20260901094517 76 46 2.0 4.0 0.00 1.27 0.00 99 1015.0
20260901093517 76 23 2.0 3.0 0.00 1.27 0.00 99 1015.0